Elefsis, Greece

12:00 PM EEST on August 21, 2017 (GMT +0300)
Elefsis Air Base

Weather History for LGEL - July, 2013

Change the Weather History Date:

Saturday, July 6, 2013

  Actual Average Record
Temperature  
Mean Temperature 81 °F -  
Max Temperature 87 °F 90 °F 111 °F (2000)
Min Temperature 75 °F 72 °F 68 °F (2005)
Cooling Degree Days 16    
Growing Degree Days 31 (Base 50)    
Moisture  
Dew Point 55 °F    
Average Humidity 41    
Maximum Humidity 57    
Minimum Humidity 29    
Precipitation  
Precipitation 0.00 in - - ()
Sea Level Pressure  
Sea Level Pressure 29.86 in    
Wind  
Wind Speed 8 mph ()    
Max Wind Speed 18 mph    
Max Gust Speed 34 mph    
Visibility 6.2 miles    
Events      
Averages and records for this station are not official NWS values.
T = Trace of Precipitation, MM = Missing Value Source: Averaged Metar Reports

Daily Weather History Graph

Daily Weather History Graph

Search for Another Location

Airport or City:

Trip Planner

Search our weather history database for the weather conditions in past years. The results will help you decide how hot, cold, wet, or windy it might be!

Date:

Astronomy

Jul. 06, 2013 Rise Set
Actual Time 6:09 AM EEST 8:51 PM EEST
Civil Twilight 5:38 AM EEST 9:22 PM EEST
Nautical Twilight 4:59 AM EEST 10:01 PM EEST
Astronomical Twilight 4:15 AM EEST 10:45 PM EEST
Moon 4:39 AM EEST (7/6) 7:19 PM EEST (7/6)
Length of Visible Light 15h 44m
Length of Day
14h 42m
Waning Crescent, 3% of the Moon is Illuminated
Jul 6
Waning Crescent
Jul 8
New
Jul 16
First Quarter
Jul 22
Full
Jul 29
Last Quarter

Hourly Weather History & Observations

Time (EEST) Temp. Heat Index Dew Point Humidity Pressure Visibility Wind Dir Wind Speed Gust Speed Precip Events Conditions
12:50 AM 75.2 °F - 51.8 °F 44% 29.89 in - NNW 5.8 mph - N/A   Clear
1:50 AM 75.2 °F - 51.8 °F 44% 29.89 in 6.2 mi Calm Calm - N/A   Partly Cloudy
2:50 AM 77.0 °F - 51.8 °F 41% 29.89 in 6.2 mi Calm Calm - N/A   Partly Cloudy
3:50 AM 75.2 °F - 51.8 °F 44% 29.89 in 6.2 mi Calm Calm - N/A   Partly Cloudy
4:50 AM 75.2 °F - 53.6 °F 47% 29.86 in - NNW 4.6 mph - N/A   Clear
5:50 AM 75.2 °F - 55.4 °F 50% 29.86 in 6.2 mi NNW 5.8 mph - N/A   Partly Cloudy
6:20 AM 75.2 °F - 57.2 °F 53% 29.86 in 6.2 mi NNW 8.1 mph - N/A   Partly Cloudy
6:50 AM 75.2 °F - 57.2 °F 53% 29.86 in 6.2 mi NNW 6.9 mph - N/A   Scattered Clouds
7:20 AM 77.0 °F - 59.0 °F 54% 29.89 in 6.2 mi NW 9.2 mph - N/A   Scattered Clouds
7:50 AM 77.0 °F - 60.8 °F 57% 29.89 in 6.2 mi NW 10.4 mph - N/A   Scattered Clouds
8:20 AM 77.0 °F - 60.8 °F 57% 29.89 in 6.2 mi NNW 10.4 mph - N/A   Scattered Clouds
8:50 AM 78.8 °F - 60.8 °F 54% 29.86 in 6.2 mi NW 11.5 mph - N/A   Scattered Clouds
9:20 AM 80.6 °F 81.5 °F 60.8 °F 51% 29.86 in 6.2 mi NNW 11.5 mph - N/A   Scattered Clouds
9:50 AM 80.6 °F 80.8 °F 57.2 °F 45% 29.86 in 6.2 mi NNW 13.8 mph - N/A   Scattered Clouds
10:20 AM 80.6 °F 80.8 °F 57.2 °F 45% 29.86 in 6.2 mi North 12.7 mph - N/A   Scattered Clouds
10:50 AM 82.4 °F 81.7 °F 55.4 °F 39% 29.86 in 6.2 mi North 12.7 mph - N/A   Scattered Clouds
11:20 AM 84.2 °F 83.0 °F 55.4 °F 37% 29.86 in 6.2 mi North 15.0 mph - N/A   Scattered Clouds
11:50 AM 84.2 °F 83.0 °F 55.4 °F 37% 29.86 in 6.2 mi North 16.1 mph - N/A   Scattered Clouds
12:20 PM 84.2 °F 83.0 °F 55.4 °F 37% 29.86 in 6.2 mi North 15.0 mph 26.5 mph N/A   Scattered Clouds
12:50 PM 84.2 °F 82.8 °F 53.6 °F 35% 29.86 in 6.2 mi NNW 17.3 mph 28.8 mph N/A   Scattered Clouds
1:20 PM 86.0 °F 84.2 °F 53.6 °F 33% 29.86 in 6.2 mi North 17.3 mph 29.9 mph N/A   Scattered Clouds
1:50 PM 86.0 °F 84.2 °F 53.6 °F 33% 29.86 in 6.2 mi North 18.4 mph 31.1 mph N/A   Scattered Clouds
2:20 PM 86.0 °F 84.2 °F 53.6 °F 33% 29.86 in 6.2 mi NNW 13.8 mph 34.5 mph N/A   Scattered Clouds
2:50 PM 87.8 °F - 51.8 °F 29% 29.86 in 6.2 mi NNW 16.1 mph 28.8 mph N/A   Scattered Clouds
3:20 PM 87.8 °F - 51.8 °F 29% 29.86 in 6.2 mi North 15.0 mph - N/A   Scattered Clouds
3:50 PM 87.8 °F - 51.8 °F 29% 29.86 in 6.2 mi North 18.4 mph 32.2 mph N/A   Scattered Clouds
4:20 PM 87.8 °F - 51.8 °F 29% 29.86 in 6.2 mi North 13.8 mph 25.3 mph N/A   Scattered Clouds
4:50 PM 86.0 °F - 51.8 °F 31% 29.83 in 6.2 mi North 18.4 mph 31.1 mph N/A   Scattered Clouds
5:50 PM 86.0 °F 84.2 °F 53.6 °F 33% 29.86 in 6.2 mi North 11.5 mph - N/A   Scattered Clouds
6:20 PM 84.2 °F 82.8 °F 53.6 °F 35% 29.83 in 6.2 mi NNE 11.5 mph - N/A   Scattered Clouds
6:50 PM 84.2 °F 82.8 °F 53.6 °F 35% 29.83 in 6.2 mi NNE 12.7 mph - N/A   Scattered Clouds
7:20 PM 84.2 °F 82.8 °F 53.6 °F 35% 29.83 in 6.2 mi North 13.8 mph - N/A   Scattered Clouds
8:20 PM 84.2 °F 83.0 °F 55.4 °F 37% 29.86 in 6.2 mi NNW 11.5 mph - N/A   Partly Cloudy
8:50 PM 82.4 °F 81.7 °F 55.4 °F 39% 29.86 in 6.2 mi NNW 9.2 mph - N/A   Partly Cloudy
9:20 PM 82.4 °F 81.7 °F 55.4 °F 39% 29.86 in 6.2 mi NW 8.1 mph - N/A   Partly Cloudy
9:50 PM 82.4 °F 81.7 °F 55.4 °F 39% 29.86 in 6.2 mi NNW 6.9 mph - N/A   Partly Cloudy
10:20 PM 82.4 °F 81.7 °F 55.4 °F 39% 29.86 in 6.2 mi NNW 8.1 mph - N/A   Partly Cloudy
10:50 PM 82.4 °F 81.7 °F 55.4 °F 39% 29.89 in 6.2 mi NW 6.9 mph - N/A   Partly Cloudy
11:20 PM 80.6 °F 80.3 °F 53.6 °F 39% 29.89 in 6.2 mi NW 5.8 mph - N/A   Partly Cloudy
11:50 PM 80.6 °F 80.5 °F 55.4 °F 42% 29.89 in 6.2 mi NNW 5.8 mph - N/A   Partly Cloudy